Breckenridge, TX

8:41 AM CST on February 23, 2017 (GMT -0600)
Stephens County

Weather History for KBKD - March, 2014

Change the Weather History Date:

Tuesday, March 18, 2014

  Actual Average (KMWL) Record (KMWL)
Temperature  
Mean Temperature 72 °F -  
Max Temperature 91 °F 65 °F 90 °F (2014)
Min Temperature 54 °F 43 °F 41 °F (2001)
Cooling Degree Days 7    
Growing Degree Days 22 (Base 50)    
Moisture  
Dew Point 21 °F    
Average Humidity 19    
Maximum Humidity 31    
Minimum Humidity 6    
Precipitation  
Precipitation 0.03 in - - ()
Sea Level Pressure  
Sea Level Pressure 29.62 in    
Wind  
Wind Speed 19 mph (WSW)    
Max Wind Speed 26 mph    
Max Gust Speed 37 mph    
Visibility 8 miles    
Events      
Averages and records for this station are not official NWS values.
T = Trace of Precipitation, MM = Missing Value Source: NWS Daily Summary

Daily Weather History Graph

Daily Weather History Graph

Search for Another Location

Airport or City:

Trip Planner

Search our weather history database for the weather conditions in past years. The results will help you decide how hot, cold, wet, or windy it might be!

Date:

Astronomy

Mar. 18, 2014 Rise Set
Actual Time 7:41 AM CDT 7:45 PM CDT
Civil Twilight 7:17 AM CDT 8:10 PM CDT
Nautical Twilight 6:48 AM CDT 8:38 PM CDT
Astronomical Twilight 6:19 AM CDT 9:07 PM CDT
Moon 9:55 PM CDT (3/18) 8:39 AM CDT (3/18)
Length of Visible Light 12h 53m
Length of Day
12h 03m
Waning Gibbous, 96% of the Moon is Illuminated
Mar 18
Waning Gibbous
Mar 23
Last Quarter
Mar 30
New
Apr 7
First Quarter
Apr 15
Full

Hourly Weather History & Observations

Time (CDT) Temp. Dew Point Humidity Pressure Visibility Wind Dir Wind Speed Gust Speed Precip Events Conditions
12:10 AM 58.1 °F 22.8 °F 26% 29.60 in 10.0 mi SSE 18.4 mph 25.3 mph N/A   Clear
12:30 AM 57.7 °F 23.0 °F 26% 29.59 in 10.0 mi SSE 19.6 mph 28.8 mph N/A   Clear
12:50 AM 56.7 °F 23.5 °F 28% 29.59 in 10.0 mi SSE 16.1 mph 26.5 mph N/A   Clear
1:10 AM 56.5 °F 23.4 °F 28% 29.58 in 10.0 mi South 17.3 mph 24.2 mph N/A   Clear
1:30 AM 55.9 °F 23.7 °F 29% 29.56 in 10.0 mi South 17.3 mph 24.2 mph N/A   Clear
1:50 AM 55.9 °F 23.7 °F 29% 29.56 in 10.0 mi South 19.6 mph 27.6 mph N/A   Clear
2:10 AM 55.9 °F 23.9 °F 29% 29.55 in 10.0 mi South 18.4 mph 26.5 mph N/A   Clear
2:30 AM 56.3 °F 23.7 °F 28% 29.56 in 10.0 mi South 19.6 mph 24.2 mph N/A   Clear
2:50 AM 56.3 °F 23.7 °F 28% 29.55 in 10.0 mi South 18.4 mph 26.5 mph N/A   Clear
3:10 AM 55.9 °F 23.9 °F 29% 29.55 in 10.0 mi South 18.4 mph 25.3 mph N/A   Clear
3:30 AM 55.6 °F 23.9 °F 29% 29.54 in 10.0 mi South 18.4 mph 23.0 mph N/A   Clear
3:50 AM 55.8 °F 23.9 °F 29% 29.53 in 10.0 mi South 21.9 mph 28.8 mph N/A   Clear
4:10 AM 55.6 °F 23.9 °F 29% 29.52 in 10.0 mi South 20.7 mph 27.6 mph N/A   Clear
4:30 AM 55.4 °F 23.9 °F 30% 29.52 in 10.0 mi SSW 20.7 mph 28.8 mph N/A   Clear
4:50 AM 55.0 °F 23.9 °F 30% 29.52 in 10.0 mi South 18.4 mph 27.6 mph N/A   Clear
5:10 AM 54.3 °F 24.3 °F 31% 29.52 in 10.0 mi South 18.4 mph 24.2 mph N/A   Clear
5:30 AM 54.7 °F 24.4 °F 31% 29.53 in 10.0 mi South 16.1 mph 23.0 mph N/A   Clear
5:50 AM 56.1 °F 24.4 °F 29% 29.52 in 10.0 mi SSW 18.4 mph 25.3 mph N/A   Clear
6:10 AM 57.2 °F 24.3 °F 28% 29.52 in 10.0 mi SSW 19.6 mph 26.5 mph N/A   Clear
6:30 AM 57.6 °F 24.3 °F 28% 29.52 in 10.0 mi SSW 19.6 mph 25.3 mph N/A   Clear
6:50 AM 57.6 °F 24.4 °F 28% 29.53 in 10.0 mi SSW 19.6 mph 25.3 mph N/A   Clear
7:10 AM 57.6 °F 24.6 °F 28% 29.54 in 10.0 mi SSW 19.6 mph 28.8 mph N/A   Clear
7:30 AM 58.1 °F 24.4 °F 27% 29.54 in 10.0 mi SSW 18.4 mph 26.5 mph N/A   Clear
7:50 AM 58.1 °F 24.6 °F 28% 29.55 in 10.0 mi SSW 18.4 mph 24.2 mph N/A   Clear
8:10 AM 58.8 °F 24.8 °F 27% 29.56 in 10.0 mi SSW 18.4 mph 27.6 mph N/A   Clear
8:30 AM 59.9 °F 24.8 °F 26% 29.57 in 10.0 mi SW 19.6 mph 27.6 mph N/A   Clear
8:50 AM 60.8 °F 25.3 °F 26% 29.57 in 10.0 mi SW 21.9 mph 33.4 mph N/A   Clear
9:10 AM 62.1 °F 25.7 °F 25% 29.59 in 10.0 mi SW 25.3 mph 33.4 mph N/A   Clear
9:30 AM 63.5 °F 26.1 °F 24% 29.59 in 10.0 mi SW 21.9 mph 28.8 mph N/A   Clear
9:50 AM 65.3 °F 26.4 °F 23% 29.60 in 10.0 mi SW 19.6 mph 27.6 mph N/A   Clear
10:10 AM 68.2 °F 25.9 °F 20% 29.60 in 10.0 mi SW 21.9 mph 31.1 mph N/A   Clear
10:30 AM 69.8 °F 26.4 °F 20% 29.61 in 10.0 mi SW 18.4 mph 27.6 mph N/A   Clear
10:50 AM 72.1 °F 25.3 °F 17% 29.60 in 10.0 mi SW 23.0 mph 27.6 mph N/A   Clear
11:10 AM 74.3 °F 24.4 °F 16% 29.60 in 10.0 mi SW 19.6 mph 28.8 mph N/A   Clear
11:30 AM 77.0 °F 24.8 °F 14% 29.60 in 10.0 mi SW 17.3 mph 23.0 mph N/A   Clear
11:50 AM 78.6 °F 24.6 °F 14% 29.60 in 10.0 mi SW 18.4 mph 27.6 mph N/A   Clear
12:10 PM 79.9 °F 23.9 °F 13% 29.61 in 10.0 mi WSW 17.3 mph 26.5 mph N/A   Clear
12:30 PM 81.1 °F 24.4 °F 12% 29.60 in 10.0 mi WSW 19.6 mph 23.0 mph N/A   Clear
12:50 PM 82.8 °F 23.7 °F 11% 29.60 in 10.0 mi West 20.7 mph 27.6 mph N/A   Clear
1:10 PM 83.5 °F 24.4 °F 12% 29.60 in 10.0 mi WSW 15.0 mph 27.6 mph N/A   Clear
1:30 PM 85.1 °F 24.3 °F 11% 29.59 in 10.0 mi SW 16.1 mph 27.6 mph N/A   Clear
1:50 PM 86.2 °F 23.9 °F 10% 29.57 in 10.0 mi SW 15.0 mph 26.5 mph N/A   Clear
2:10 PM 87.1 °F 23.0 °F 10% 29.57 in 10.0 mi SW 16.1 mph 25.3 mph N/A   Clear
2:30 PM 88.7 °F 21.9 °F 9% 29.56 in 10.0 mi West 15.0 mph 21.9 mph N/A   Clear
2:50 PM 88.5 °F 21.2 °F 9% 29.56 in 10.0 mi West 10.4 mph 26.5 mph N/A   Clear
3:10 PM 88.3 °F 20.1 °F 8% 29.56 in 10.0 mi WSW 11.5 mph 19.6 mph N/A   Clear
3:30 PM 89.8 °F 20.1 °F 8% 29.56 in 10.0 mi WSW 26.5 mph 35.7 mph N/A   Clear
3:50 PM - - N/A% - - North - - N/A   Unknown
4:10 PM - - N/A% - - North - - N/A   Unknown
4:35 PM 90.5 °F 15.8 °F 6% 29.55 in 10.0 mi West 19.6 mph 31.1 mph 0.03 in   Unknown
4:55 PM 90.9 °F 15.6 °F 6% 29.55 in 10.0 mi West 26.5 mph 32.2 mph 0.03 in   Clear
5:15 PM 89.8 °F 12.9 °F 6% 29.57 in 7.0 mi WNW 19.6 mph 36.8 mph N/A   Clear
5:35 PM 89.2 °F 14.4 °F 6% 29.57 in 7.0 mi WNW 20.7 mph 34.5 mph N/A   Scattered Clouds
5:55 PM 87.4 °F 17.4 °F 8% 29.59 in 5.0 mi NW 20.7 mph 29.9 mph N/A   Haze
6:15 PM 86.0 °F 16.2 °F 7% 29.61 in 7.0 mi NW 19.6 mph 32.2 mph N/A   Overcast
6:35 PM 83.8 °F 14.9 °F 8% 29.63 in 5.0 mi NW 18.4 mph 34.5 mph N/A   Haze
6:55 PM 81.7 °F 13.3 °F 8% 29.65 in 3.0 mi NNW 20.7 mph 29.9 mph N/A   Haze
7:15 PM 79.7 °F 9.9 °F 7% 29.68 in 2.5 mi NNW 18.4 mph 27.6 mph N/A   Haze
7:35 PM 77.9 °F 8.1 °F 7% 29.69 in 3.0 mi NW 18.4 mph 29.9 mph N/A   Haze
7:55 PM 76.5 °F 4.6 °F 6% 29.71 in 3.0 mi NNW 18.4 mph 28.8 mph N/A   Haze
8:15 PM 75.2 °F 5.7 °F 7% 29.73 in 5.0 mi NW 15.0 mph 21.9 mph N/A   Haze
8:35 PM 73.8 °F 5.5 °F 7% 29.75 in 5.0 mi NW 13.8 mph 23.0 mph N/A   Haze
8:55 PM 72.3 °F 6.4 °F 8% 29.76 in 5.0 mi NNW 11.5 mph - N/A   Haze
9:15 PM 72.0 °F 8.2 °F 8% 29.79 in 7.0 mi North 16.1 mph 23.0 mph N/A   Overcast
9:35 PM 70.7 °F 15.3 °F 12% 29.82 in 7.0 mi North 11.5 mph 17.3 mph N/A   Overcast
9:55 PM 66.7 °F 21.2 °F 18% 29.87 in 2.5 mi North 23.0 mph 33.4 mph N/A   Haze
10:15 PM 65.7 °F 20.5 °F 18% 29.89 in 3.0 mi North 17.3 mph 34.5 mph N/A   Haze
10:35 PM 64.8 °F 20.3 °F 18% 29.90 in 5.0 mi North 17.3 mph 27.6 mph N/A   Haze
10:55 PM 63.7 °F 18.9 °F 18% 29.91 in 5.0 mi North 23.0 mph 29.9 mph N/A   Haze
11:15 PM 62.6 °F 18.0 °F 18% 29.93 in 7.0 mi North 23.0 mph 34.5 mph N/A   Overcast
11:35 PM 61.2 °F 19.8 °F 20% 29.95 in 5.0 mi North 21.9 mph 31.1 mph N/A   Haze
11:55 PM 59.5 °F 21.2 °F 23% 29.97 in 5.0 mi North 18.4 mph 28.8 mph N/A   Haze